Weather Roundup
Issued by NWS

Home | Current Version | Previous Version | Graphics & Text | Print | Product List | Glossary Off
Versions: 1 2 3 4 5 6 7 8 9 10 11 12 13 14 15 16 17 18 19 20 21 22 23 24 25 26 27 28 29 30 31 32 33 34 35 36 37 38 39 40 41 42 43 44 45 46 47 48 49 50

073
NZUS93 KARX 261859
HRRWXR

CURRENT HOURLY OBSERVATIONS ACROSS
MUCH OF THE UPPER MISSISSIPPI VALLEY
NATIONAL WEATHER SERVICE LA CROSSE WI
100 PM CST SUN FEB 26 2017


...SOUTHEAST MINNESOTA...


CITY           SKY/WX    TMP DP  RH WIND       PRES   REMARKS
ROCHESTER      SUNNY     30  23  75 W16       29.82S WCI  19
ROCHESTER/MAYO FAIR      32  22  66 W10G23    29.82S WCI  23
WINONA         CLOUDY    36  25  64 W6        29.83S WCI  31
AUSTIN         SUNNY     30  21  69 SW12      29.84S WCI  21
ALBERT LEA     SUNNY     30  21  69 W10       29.85R WCI  21
DODGE CENTER   NOT AVBL
PRESTON        SUNNY     32  22  66 SW13      29.83R WCI  23
OWATONNA       MOSUNNY   30  21  69 SW12      29.83S WCI  21
FARIBAULT      PTSUNNY   34  25  69 W12       29.83S WCI  25
$$

...ELSEWHERE IN MINNESOTA...


CITY           SKY/WX    TMP DP  RH WIND       PRES   REMARKS
MINNEAPOLIS    PTSUNNY   39  19  44 NW20G25   29.79S WCI  29
INTNL FALLS    MOSUNNY   15  -1  49 W13       29.76S WCI   1
DULUTH         SUNNY     20   6  55 NW16G29   29.72R WCI   6
RED WING       SUNNY     34  19  55 W8        29.80F WCI  27
REDWOOD FALLS  SUNNY     34  16  47 NW13G20   29.85R WCI  25
MANKATO          N/A     35  24  64 W13       29.84S WCI  26
WORTHINGTON    SUNNY     33  26  75 W13       29.86R WCI  24
FAIRMONT       SUNNY     35  25  66 W12       29.86S WCI  27
$$

...SOUTHWEST WISCONSIN...


CITY           SKY/WX    TMP DP  RH WIND       PRES   REMARKS
LA CROSSE      SUNNY     39  25  57 SW13G21   29.83S WCI  31
PRAIRIE DU CHI SUNNY     38  26  62 SW9       29.88S WCI  32
BOSCOBEL       SUNNY     40  25  55 SW15G21   29.87F WCI  32
LONE ROCK      NOT AVBL
PLATTEVILLE    SUNNY     39  30  70 SW16      29.89F WCI  30
FORT MC COY    SUNNY     38  23  54 W13G21    29.82S WCI  31
MAUSTON-NEW LI CLEAR     38  23  54 SW9G20    29.80F WCI  32
VIROQUA        FAIR      37  25  62 SW12      29.82S WCI  29
WIS DELLS      SUNNY     37  23  57 SW12G18   29.82F WCI  29
$$

...ELSEWHERE IN WISCONSIN...


CITY           SKY/WX    TMP DP  RH WIND       PRES   REMARKS
MILWAUKEE      MOSUNNY   42  22  44 W21G32    29.88R
MADISON        MOSUNNY   38  25  59 W13G22    29.86S WCI  30
GREEN BAY      SUNNY     36  24  62 SW13      29.77F WCI  27
EAU CLAIRE     NOT AVBL
BLACK RVR FLS  CLOUDY    39  18  43 SW5       29.79F
MEDFORD        PTSUNNY   29  20  69 SW9G16    29.72S WCI  21
WAUSAU         CLOUDY    32  21  64 SW12      29.73S WCI  23
WIS RAPIDS     SUNNY     38  19  46 W15G23    29.78S WCI  29
MARSHFIELD     CLOUDY    33  20  58 W13       29.74F WCI  24
RICE LAKE      CLOUDY    33  23  68 SW15      29.76S WCI  23
$$

...NORTHEAST IOWA...


CITY           SKY/WX    TMP DP  RH WIND       PRES   REMARKS
WATERLOO       SUNNY     39  27  62 SW17      29.89F WCI  30
DUBUQUE        SUNNY     41  29  62 SW17      29.88F
DECORAH        SUNNY     36  25  64 SW8G16    29.84S WCI  29
MASON CITY     SUNNY     30  21  69 W16       29.88R WCI  19
CHARLES CITY   SUNNY     32  25  74 SW15      29.88R WCI  22
OELWEIN        SUNNY     39  30  70 SW15G21   29.88S WCI  31
$$

...ELSEWHERE IN IOWA...


CITY           SKY/WX    TMP DP  RH WIND       PRES   REMARKS
DES MOINES     MOSUNNY   48  25  40 W22G29    29.91F
IOWA CITY      SUNNY     49  24  37 SW16G25   29.93F
FORT DODGE     SUNNY     30  19  64 SW12      29.91S WCI  21
MARSHALLTOWN   SUNNY     42  29  59 W18       29.90F
CEDAR RAPIDS   SUNNY     46  26  45 W20       29.90F
$$

...NORTHERN ILLINOIS...


CITY           SKY/WX    TMP DP  RH WIND       PRES   REMARKS
CHICAGO-OHARE  PTSUNNY   45  19  35 SW22G31   29.93F
CHICAGO-MIDWAY MOSUNNY   47  18  31 SW21G35   29.95F
MOLINE         SUNNY     49  21  33 W20G30    29.94F
ROCKFORD       MOSUNNY   45  23  42 SW15G26   29.93F
PEORIA         SUNNY     47  19  33 SW17G24   30.00F
$$

NOTE: "FAIR" INDICATES FEW OR NO CLOUDS BELOW 12,000 FEET WITH NO
SIGNIFICANT WEATHER AND/OR OBSTRUCTIONS TO VISIBILITY. WIND
SPEEDS ARE IN MILES-PER-HOUR.




USA.gov is the U.S. government's official web portal to all federal, state and local government web resources and services.